Вернуться в каталог

STARLINK-4788

АктивенСвязьVLEO
NORAD 53863·PAYLOAD·🇺🇸 United States

Запущен Sep 19, 2022 с Cape Canaveral Space Force Station

Loading…

Ближайшие Пролёты (ближайшие 24 часа)

TLE

СвежийSource: CelesTrak SupGP

Эпоха: Sep 14, 2026, 22:18 UTC

1 53863C 22114AX  26257.92965278 -.00024741  00000+0 -79522-3 0  2579
2 53863  53.1562 144.4984 0001440  92.0762 344.5704 15.31729995    17

Отслеживайте STARLINK-4788 в реальном времени с AllMySat

Download on the App Store